Temp
32 34 34 32 31 33 31 32 30 47 52 61 51 52 62 70 70 70 70 72 74 74 72 73 72 73 70 65 65 66 65 63 62 62 63 63 62 62 63 62 61 61 59 58
30 37 37 33 36 38 37 38 37 40 42 55 58 56 58 64 66 66 68 72 72 74 74 73 73 72 68 63 62 63 62 61 61 60 61 60 60 61 60 59 60 59 57 56
26 35 32 25 34 38 41 44 45 39 49 57 57 54 54 59 63 64 67 70 71 70 72 72 71 73 68 63 61 60 59 59 59 59 59 59 59 59 58 57 57 56 55 54
27 31 18 38 50 49 45 47 50 51 53 56 57 61 62 65 65 65 68 70 73 71 69 71 73 72 71 65 61 59 57 57 58 58 58 58 58 58 56 56 55 54 52 47
24 26 34 39 45 45 44 42 53 51 54 56 59 60 60 65 67 66 68 72 73 75 72 71 71 72 72 64 61 59 57 56 57 57 57 57 55 55 56 55 53 52 49 43
29 23 21 41 53 56 54 35 54 56 54 54 56 46 54 65 68 69 70 72 74 75 76 71 70 71 70 66 61 58 57 57 58 57 56 55 55 55 55 55 52 50 45 43
29 26 34 48 53 56 34 38 55 56 55 54 51 54 59 62 65 68 70 73 75 74 75 76 73 71 68 65 61 61 59 58 57 57 55 55 54 54 54 51 49 45 43 40
31 27 24 54 53 42 49 54 56 56 56 55 57 58 60 62 63 66 68 71 73 72 73 75 76 71 68 66 66 62 60 57 56 55 55 54 53 52 50 48 45 42 40 38
37 36 48 53 52 56 57 54 55 56 58 58 57 58 60 61 63 65 67 68 72 72 72 73 74 74 69 69 67 61 59 57 56 55 54 53 51 48 46 45 43 40 39 38
38 45 50 53 57 58 58 56 58 59 60 60 58 59 59 61 62 64 65 65 67 69 69 68 72 72 71 70 68 62 58 56 55 53 51 50 49 48 45 43 41 40 39 38
40 46 49 52 56 57 58 59 59 60 60 59 60 59 60 61 62 63 64 65 66 65 65 66 69 71 70 71 68 61 59 56 54 52 50 48 48 47 45 45 43 41 40 39
36 48 48 49 52 57 56 56 57 56 58 61 61 60 62 61 63 63 63 64 63 64 64 66 69 69 70 69 69 62 58 55 52 49 48 47 45 42 38 39 39 39 40 39
48 54 53 54 56 58 56 57 59 59 59 58 59 60 61 60 61 59 62 63 63 62 64 65 66 66 68 64 67 62 57 54 49 47 46 45 43 41 37 35 37 37 37 37
56 55 50 53 50 56 56 57 57 59 59 59 59 60 59 59 59 59 58 59 60 61 60 60 60 57 54 53 60 61 57 47 48 47 46 45 43 41 39 37 35 34 35 36
52 53 52 53 54 53 55 56 54 54 56 57 59 57 58 57 57 58 59 56 48 43 41 40 39 40 42 47 47 48 55 50 48 47 45 44 42 40 39 38 36 35 35 34
50 50 50 48 47 48 49 49 48 49 51 53 55 55 57 57 58 58 60 59 55 51 49 39 39 40 38 41 46 44 50 46 45 46 44 42 40 39 38 37 36 35 35 34
43 41 42 41 43 43 44 46 46 46 47 48 48 50 54 55 55 54 55 54 50 46 46 39 38 38 39 42 46 48 50 46 45 46 42 41 39 39 39 37 36 36 35 35
45 44 44 42 39 39 40 42 43 44 43 45 46 45 42 39 42 39 35 35 34 34 37 41 42 43 42 46 47 51 49 46 45 43 41 40 39 40 39 38 37 36 35 34
42 40 39 39 39 37 37 37 39 40 38 38 37 37 39 36 38 38 36 35 35 36 40 42 39 39 44 45 46 51 47 45 43 41 41 39 39 40 39 38 37 36 35 34
37 38 38 38 38 36 34 35 34 34 37 36 36 36 36 35 35 34 35 34 37 40 43 42 42 43 44 46 41 50 45 43 42 40 39 39 38 37 38 37 37 35 34 34
34 35 35 34 34 34 33 33 32 33 34 34 33 33 34 34 34 34 33 33 36 36 38 38 41 42 44 46 45 44 42 40 39 38 37 37 36 37 36 36 35 34 34 34
33 32 32 32 32 32 32 32 32 32 33 33 33 33 33 32 33 32 33 33 35 33 36 38 39 40 41 39 42 40 40 39 37 37 36 35 36 35 34 34 34 34 34 34
33 32 32 32 32 32 32 32 32 32 32 32 32 32 32 32 32 32 32 33 33 33 35 35 35 36 36 37 37 36 36 35 35 34 34 35 34 34 34 34 34 34 34 34
33 32 32 32 33 32 31 32 32 32 32 32 32 32 32 32 32 32 32 32 32 32 33 34 33 33 33 33 33 33 33 33 33 33 34 34 33 34 34 34 34 34 34 34
32 32 32 32 32 32 32 32 33 32 32 32 32 32 32 32 31 32 32 32 32 32 32 32 32 32 32 33 33 33 33 33 33 33 33 33 34 34 34 34 34 34 34 34
32 32 33 32 32 32 32 32 32 32 32 31 32 32 32 32 32 32 32 32 32 32 32 32 32 32 33 33 33 33 33 33 34 34 34 34 34 34 34 34 34 34 34 34
34 33 33 33 33 33 32 32 31 30 32 32 31 32 32 32 32 32 32 32 32 32 32 32 32 32 32 32 32 33 33 33 34 34 34 34 34 34 34 34 34 34 34 34
MSLP
1004.06 1003.98 1004.08 1003.81 1003.26 1002.72 1001.86 1000.66 998.40 994.92 992.67 990.94 992.20 992.57 992.12 991.67 990.52 990.20 990.08 990.33 990.79 991.23 991.92 992.61 993.09 993.71 994.50 995.67 996.52 997.03 997.49 998.25 999.29 1000.38 1001.26 1001.94 1003.06 1004.13 1005.06 1006.00 1007.04 1008.35 1009.28 1010.83
1003.64 1003.24 1003.06 1002.80 1002.28 1001.45 1001.12 999.95 998.26 996.33 994.63 993.94 993.49 993.31 993.67 993.30 992.34 991.76 991.48 991.41 991.44 991.66 992.20 993.08 993.64 994.30 995.35 996.25 997.06 997.95 998.48 999.03 999.66 1000.64 1001.62 1002.41 1003.36 1004.19 1005.23 1006.40 1007.30 1008.28 1009.50 1010.61
1003.56 1003.16 1002.88 1002.20 999.97 999.23 999.26 998.44 997.43 995.95 994.98 994.29 994.15 994.99 995.13 994.49 993.37 992.91 992.47 992.09 992.02 991.99 992.15 993.12 993.84 994.60 995.57 996.85 997.62 998.26 998.87 999.54 1000.07 1000.69 1001.64 1002.47 1003.37 1004.37 1005.33 1006.47 1007.62 1008.69 1009.72 1010.83
1003.63 1003.09 1001.87 999.18 997.85 997.54 997.26 996.22 995.59 994.87 994.81 994.25 993.99 994.26 994.25 993.82 993.42 993.24 992.78 992.34 991.92 992.27 992.40 992.78 993.52 994.31 994.97 996.48 997.81 998.71 999.30 999.76 1000.27 1000.94 1001.60 1002.44 1003.31 1004.28 1005.44 1006.53 1007.73 1008.72 1009.90 1011.33
1003.01 1002.01 999.94 998.67 996.73 995.94 995.61 995.14 994.67 994.32 994.34 993.99 993.50 993.39 993.31 993.19 992.82 993.18 993.05 992.30 992.16 991.90 992.35 992.85 993.42 994.13 994.93 996.49 997.63 998.58 999.31 999.86 1000.29 1000.80 1001.56 1002.52 1003.50 1004.49 1005.41 1006.67 1007.97 1009.13 1010.25 1011.57
1001.88 1000.98 998.87 996.31 994.61 994.77 994.97 994.30 994.23 993.84 993.55 993.67 993.89 993.39 993.04 992.73 992.64 992.51 992.37 993.31 992.25 992.00 991.71 992.28 993.16 993.86 994.57 995.63 997.03 997.88 998.73 999.47 1000.06 1000.72 1001.48 1002.43 1003.49 1004.33 1005.62 1006.80 1007.97 1009.23 1010.73 1011.90
1000.53 1000.09 997.73 994.82 995.13 994.72 994.78 994.47 993.71 993.61 993.45 993.43 994.08 994.60 994.14 993.62 993.10 992.65 992.19 991.68 991.73 992.02 991.56 991.54 992.22 992.88 993.83 994.91 995.72 996.73 998.27 999.37 1000.15 1000.73 1001.51 1002.33 1003.27 1004.38 1005.69 1006.64 1008.21 1009.62 1010.90 1012.40
999.16 998.78 996.91 993.87 993.83 994.33 994.03 993.39 993.47 993.41 993.41 993.74 994.09 994.40 994.34 994.17 993.65 993.13 992.58 992.10 991.57 991.77 991.46 991.32 991.56 992.33 993.11 993.78 994.93 996.30 997.77 998.88 999.82 1000.63 1001.45 1002.40 1003.20 1004.42 1005.50 1006.75 1008.13 1009.42 1011.02 1012.70
997.36 995.69 993.53 993.21 993.82 993.93 993.84 993.63 993.63 993.42 993.37 993.62 993.92 994.09 994.08 993.65 993.47 993.36 992.99 992.46 991.79 991.38 991.24 991.25 991.32 991.62 992.51 993.21 994.47 996.04 997.24 998.31 999.25 1000.16 1001.05 1001.93 1002.87 1004.14 1005.66 1006.80 1007.98 1009.35 1010.51 1011.78
997.05 994.12 993.89 993.72 993.24 993.45 993.69 993.62 993.09 993.15 993.00 993.18 993.30 993.40 993.58 993.36 993.52 993.31 993.11 992.58 992.44 991.84 991.62 991.72 991.51 991.45 991.86 992.42 993.46 995.27 996.83 998.08 999.02 999.84 1000.46 1001.76 1002.78 1003.72 1004.65 1005.96 1007.67 1008.54 1009.83 1011.10
995.61 994.74 994.56 993.86 993.27 993.44 993.19 992.72 992.13 992.22 992.37 992.25 992.54 992.51 992.63 992.85 993.14 993.10 992.86 992.73 992.70 992.40 992.11 992.00 992.04 991.51 991.69 992.06 992.95 994.31 995.75 997.33 998.61 999.67 1000.44 1001.27 1002.26 1003.06 1003.78 1005.09 1005.45 1006.20 1007.84 1009.03
994.56 994.42 994.06 993.54 994.12 993.19 993.01 992.89 993.07 992.50 992.22 991.79 991.72 991.79 991.86 991.78 992.04 992.28 992.46 992.60 992.57 992.44 992.30 992.09 992.05 991.61 991.48 991.57 992.01 993.55 995.07 996.79 998.43 999.48 1000.49 1001.46 1002.38 1003.58 1004.68 1005.31 1005.98 1006.74 1007.24 1007.69
994.00 993.79 993.47 993.18 993.20 993.18 992.89 992.73 992.64 992.38 992.11 992.12 991.86 991.76 991.47 991.33 991.36 991.62 991.75 991.90 991.84 991.98 992.13 992.24 992.03 991.85 991.67 992.25 991.91 992.41 993.99 995.88 997.88 999.33 1000.12 1001.15 1002.18 1003.23 1004.77 1006.17 1006.70 1007.24 1007.63 1008.22
993.40 993.26 993.14 993.16 993.01 993.10 992.97 992.69 992.47 992.09 991.73 991.61 991.46 991.36 991.27 991.15 991.09 990.97 991.26 991.67 991.86 991.82 992.10 992.46 992.62 992.43 992.46 992.82 992.82 992.15 993.23 994.83 996.31 997.93 999.43 1000.62 1001.56 1002.73 1004.06 1004.84 1006.55 1007.82 1008.18 1008.54
993.76 993.70 993.71 993.66 993.45 993.30 993.17 992.80 992.25 991.50 991.20 990.82 990.65 990.51 990.47 990.33 990.34 990.43 990.58 991.07 991.42 991.69 992.00 992.21 992.70 992.82 992.81 993.02 993.12 993.86 993.26 994.75 996.06 997.60 998.76 1000.09 1001.51 1002.65 1003.66 1004.71 1005.86 1007.41 1008.11 1008.76
994.57 994.45 994.16 994.03 993.85 993.72 993.62 993.42 992.85 991.71 991.39 990.87 990.13 989.79 989.65 989.63 989.59 989.58 989.70 990.18 990.84 991.15 991.36 991.88 992.34 991.92 992.24 992.78 993.07 993.37 994.20 994.10 995.12 996.78 997.98 999.44 1000.88 1002.34 1003.32 1004.36 1005.36 1006.57 1007.18 1008.20
995.13 995.11 995.11 994.96 994.84 994.42 994.12 993.79 993.12 992.23 991.65 991.08 990.47 990.15 989.36 989.03 989.03 988.82 988.96 989.37 989.70 989.94 990.44 991.19 991.24 991.69 991.99 992.45 993.04 993.22 993.20 994.38 994.59 996.12 997.37 998.50 999.91 1001.17 1002.13 1003.40 1004.42 1005.66 1006.72 1007.54
996.10 995.97 995.89 995.60 995.14 994.45 993.79 993.45 992.70 991.86 991.25 990.79 990.23 989.71 989.42 989.46 988.71 988.67 989.12 989.26 989.74 989.92 989.82 990.03 990.32 990.86 991.45 991.89 992.31 992.11 992.28 993.46 994.22 995.25 996.47 997.80 999.09 1000.66 1001.38 1002.57 1003.60 1005.03 1006.13 1007.29
996.65 996.45 996.19 995.81 995.29 994.44 993.61 992.92 992.18 991.53 990.91 990.36 989.85 989.21 989.01 988.91 989.08 988.97 989.01 989.23 989.41 989.48 988.58 989.23 989.27 989.69 990.12 990.26 990.51 990.52 991.03 991.98 993.61 994.78 995.85 997.07 998.60 999.77 1000.83 1002.09 1002.94 1003.83 1005.26 1006.86
997.07 996.70 996.13 995.48 994.93 994.16 993.16 992.39 991.51 990.51 989.20 988.75 988.62 988.39 988.29 988.30 988.51 988.57 988.68 988.49 988.17 987.70 987.58 987.63 987.93 988.21 988.15 987.97 988.80 988.95 989.83 990.91 992.70 994.27 995.53 996.50 997.85 999.19 1000.48 1001.63 1002.26 1003.13 1005.16 1006.28
997.19 996.56 995.95 995.34 994.55 993.82 993.00 992.23 991.13 989.96 988.72 988.08 988.03 988.03 987.97 987.80 987.77 987.83 987.84 987.62 987.23 987.30 987.16 986.94 986.71 986.55 986.59 986.74 987.58 987.96 989.25 990.16 991.94 993.52 994.72 995.90 997.29 998.68 999.81 1000.98 1002.26 1003.49 1004.85 1006.11
997.10 996.54 995.96 995.35 994.60 993.77 993.11 992.29 991.35 990.34 989.45 988.78 988.35 987.98 987.75 987.54 987.40 987.30 987.22 986.98 986.64 986.55 986.37 986.12 986.15 986.17 986.03 986.30 986.75 987.82 989.02 989.91 991.82 993.16 994.70 995.81 997.03 998.29 999.58 1001.11 1002.57 1003.53 1005.06 1006.16
997.17 996.56 996.06 995.48 994.75 994.03 993.24 992.48 991.64 990.86 990.06 989.32 988.78 988.37 988.05 987.71 987.47 987.28 986.86 986.65 986.26 985.86 985.43 985.25 985.18 985.52 985.99 986.17 987.03 988.00 988.87 990.10 991.87 993.32 994.66 995.82 996.98 998.27 999.85 1000.94 1002.42 1003.52 1004.98 1006.14
997.11 996.66 996.24 995.63 994.85 994.16 993.43 992.81 992.20 991.60 990.88 990.17 989.59 989.08 988.50 988.07 987.82 987.50 987.10 986.68 986.37 986.09 985.69 985.61 985.76 986.03 986.63 987.31 988.03 988.81 989.92 991.20 992.55 994.02 995.09 996.19 997.40 998.69 999.94 1001.50 1002.30 1003.55 1004.76 1005.91
997.29 996.91 996.50 995.94 995.27 994.69 994.11 993.53 992.73 992.14 991.61 991.08 990.45 989.88 989.40 988.99 988.59 988.29 987.82 987.55 987.21 986.92 986.84 986.80 987.06 987.55 987.82 988.16 989.08 989.92 991.12 992.33 993.39 994.34 995.38 996.77 998.15 999.43 1000.65 1002.01 1002.93 1003.79 1004.75 1005.72
997.32 997.11 996.72 996.43 996.02 995.48 994.88 994.25 993.69 993.14 992.71 992.16 991.57 991.11 990.61 990.14 989.71 989.30 988.95 988.73 988.51 988.30 988.28 988.38 988.46 988.77 989.23 989.73 990.45 991.33 992.21 993.15 994.15 995.40 996.54 997.75 998.94 1000.02 1001.02 1002.23 1003.38 1004.07 1005.04 1006.07
997.38 997.22 996.83 996.56 996.40 995.96 995.57 995.11 994.60 994.26 993.85 993.47 993.19 992.68 992.05 991.44 990.93 990.54 990.29 990.01 989.86 989.78 989.81 989.89 989.98 990.29 990.61 991.19 991.93 992.57 993.44 994.58 995.62 996.72 997.70 998.76 999.82 1000.52 1001.57 1002.66 1003.44 1004.56 1005.53 1006.27
Wind_Speed
7 9 9 13 11 7 5 6 6 8 21 20 18 15 15 3 9 9 8 5 4 4 3 3 5 3 7 7 6 7 11 13 13 12 13 15 16 16 15 16 16 14 15 13
8 12 10 14 14 13 13 13 15 17 18 14 6 11 16 14 14 14 12 5 5 0 9 6 5 5 8 7 7 8 10 11 13 14 14 15 15 16 16 15 15 15 15 15
4 6 3 8 19 19 16 17 14 17 13 10 9 3 13 13 12 12 12 11 6 5 5 7 7 7 10 10 8 8 9 10 12 15 15 16 16 16 17 16 15 15 15 14
4 6 6 11 5 10 18 18 18 18 15 15 13 9 12 9 10 9 11 12 6 6 6 4 6 8 7 13 11 9 8 11 13 14 16 17 17 18 17 15 16 15 15 13
4 7 15 17 15 17 12 15 15 14 13 13 14 12 11 12 11 10 12 10 10 7 9 7 6 7 9 14 12 11 11 12 13 15 16 16 17 17 16 16 14 13 12 14
8 5 7 5 4 11 9 14 9 12 6 8 7 9 6 10 12 8 7 5 14 13 7 13 10 7 10 13 14 14 15 15 15 16 17 18 17 18 15 14 14 12 13 12
13 10 13 19 16 13 10 8 7 4 7 6 4 7 12 15 16 13 13 13 7 13 10 8 13 13 13 15 16 15 14 15 15 15 17 17 17 15 15 15 15 13 13 11
6 7 16 5 3 6 6 10 9 8 7 8 8 7 8 12 14 15 14 18 9 11 11 8 9 12 14 16 15 15 16 16 17 16 13 12 17 15 16 15 16 15 14 11
9 7 15 15 12 12 13 13 11 10 9 10 9 8 10 12 12 12 15 15 12 11 13 10 9 9 14 13 16 16 17 17 18 18 15 16 17 17 13 15 14 13 12 12
9 19 22 17 17 13 14 14 17 14 13 12 13 11 13 10 10 12 12 12 12 14 10 11 12 5 14 14 18 19 18 17 15 17 17 16 13 13 14 14 13 13 13 12
15 19 18 20 18 15 20 17 19 16 17 16 14 14 14 13 12 13 12 12 12 13 11 14 15 14 9 15 16 19 19 17 16 13 15 16 14 14 15 14 14 18 15 15
12 15 13 13 15 18 15 12 18 21 20 18 17 16 17 14 12 11 13 13 14 17 16 16 15 13 12 11 18 20 18 15 13 12 12 11 12 9 8 9 11 10 18 16
14 15 16 16 15 18 17 16 17 17 18 18 18 17 18 15 14 11 11 17 14 13 13 14 12 11 12 8 15 21 19 19 13 13 12 13 13 13 12 8 13 15 19 21
13 12 12 15 13 15 16 19 20 21 21 18 18 18 19 18 17 13 13 14 14 11 13 12 10 7 4 9 11 17 20 22 18 16 14 13 14 13 12 14 14 10 16 19
11 13 15 15 17 18 19 18 21 21 19 19 18 20 18 19 19 18 14 13 10 10 10 9 6 11 5 3 6 5 16 14 14 14 13 14 12 12 12 13 13 12 11 12
14 15 18 20 21 21 21 21 23 23 21 20 20 21 19 20 20 18 17 19 18 15 14 10 11 12 5 5 6 4 10 18 18 14 14 14 13 13 13 13 13 12 12 13
15 15 16 19 19 21 23 21 22 23 23 23 23 23 22 21 20 16 15 13 11 12 8 9 11 5 4 6 8 8 11 13 20 15 15 15 14 15 15 14 14 12 12 13
14 16 18 18 19 21 22 22 22 23 22 23 24 21 18 14 12 8 6 5 3 6 8 8 6 6 7 12 14 13 13 15 15 15 15 16 15 14 14 15 15 14 12 12
17 18 18 19 19 20 20 20 21 21 23 23 22 23 18 12 11 8 6 5 7 11 15 7 9 9 14 18 16 13 15 19 16 14 15 18 15 15 15 15 15 14 13 13
17 17 18 20 20 18 19 18 21 20 22 17 18 15 13 12 11 9 8 12 14 12 10 9 10 14 17 20 18 15 17 19 18 16 15 16 16 16 14 16 15 15 13 13
14 15 16 16 17 17 12 13 13 12 9 3 3 6 9 9 10 8 8 9 12 11 13 14 13 12 12 14 17 15 17 18 18 16 16 16 16 16 15 14 13 13 12 12
12 12 12 13 13 11 10 10 10 9 8 6 6 6 7 9 9 7 6 10 5 7 9 10 11 14 11 18 14 16 17 17 15 14 14 15 15 14 14 13 13 12 11 11
11 10 11 11 11 11 9 10 10 10 9 8 7 5 3 3 3 5 6 2 2 3 3 3 7 14 15 10 12 14 16 17 15 14 14 14 14 14 14 14 12 12 11 10
10 10 10 9 9 8 11 12 10 10 8 9 10 10 7 4 5 4 3 4 4 4 5 9 13 17 16 11 13 14 15 15 14 13 14 17 12 12 12 11 11 11 11 12
8 9 8 10 10 8 10 11 9 10 10 10 10 9 10 8 6 5 6 6 9 10 10 15 16 16 11 12 13 14 13 13 13 13 13 12 12 12 11 10 10 10 10 10
5 6 5 7 7 7 7 7 7 8 8 9 9 9 8 7 7 8 9 11 11 12 9 9 10 11 11 13 14 14 13 13 13 12 13 12 12 11 11 11 10 10 9 9
4 5 5 5 6 7 7 7 6 7 7 6 7 8 8 8 9 9 11 11 11 12 11 11 11 13 12 13 13 13 12 12 13 11 11 11 10 11 11 11 10 9 8 9
Wind_Direction
257 263 269 294 297 309 306 316 271 212 231 232 21 339 342 300 100 87 82 89 115 110 114 173 161 206 116 100 116 140 142 143 145 143 148 144 149 154 154 153 152 150 144 147
270 269 267 283 278 269 259 253 271 275 278 286 262 316 323 338 353 14 356 186 155 165 155 186 181 199 153 146 143 159 156 152 145 146 151 148 148 152 148 148 149 145 148 147
301 34 49 288 247 245 251 253 253 257 266 284 321 36 287 302 331 328 319 321 181 162 135 157 170 199 161 158 144 163 156 157 157 154 152 154 150 150 152 150 151 150 145 146
259 316 236 240 247 209 215 231 234 250 263 265 267 254 248 282 294 292 309 305 317 174 162 166 168 181 161 148 157 162 163 163 163 163 159 158 156 155 152 153 155 152 146 125
241 235 273 283 250 243 208 251 254 240 247 264 285 277 255 251 242 276 284 299 282 299 168 164 196 171 165 149 163 165 171 171 169 164 159 159 157 155 154 150 150 148 131 129
225 242 267 243 311 174 240 254 249 281 251 231 257 283 288 324 318 288 278 295 286 254 254 168 183 180 170 161 159 178 177 176 169 167 162 161 161 157 156 151 144 139 130 131
229 242 260 253 263 292 275 257 305 313 321 317 319 276 308 322 319 317 306 291 277 313 270 263 176 180 187 169 177 177 172 171 171 169 166 162 157 156 154 144 141 138 131 133
211 223 254 141 278 220 310 289 285 283 272 263 263 284 290 291 294 299 293 293 280 281 287 283 289 177 191 181 179 167 169 173 171 166 163 161 156 152 146 146 137 142 136 139
212 226 260 293 310 313 310 305 310 320 318 309 302 292 281 270 276 302 278 291 288 280 281 268 253 227 195 197 168 169 169 176 175 169 164 163 158 151 154 152 146 153 151 148
262 254 270 288 284 296 290 288 294 297 287 275 272 266 277 262 273 263 269 280 291 273 282 300 301 236 200 188 167 167 173 176 174 171 161 162 159 161 153 158 161 157 156 150
270 264 282 284 287 291 297 296 293 284 280 278 273 270 255 258 246 271 276 276 283 291 284 281 287 290 212 192 173 171 173 174 175 171 169 166 167 171 166 176 172 162 165 156
268 279 275 270 267 276 269 302 305 300 296 288 282 276 273 268 265 252 264 265 267 271 273 279 274 286 297 203 186 171 171 170 171 165 171 169 160 140 80 131 131 139 153 152
281 293 295 301 307 304 296 285 281 276 277 284 287 291 289 275 268 263 271 256 248 261 274 279 269 280 285 341 203 171 170 167 163 170 169 168 164 156 146 92 111 134 132 133
280 283 273 286 304 311 300 293 289 282 279 277 271 266 270 271 275 261 256 265 272 262 268 272 295 307 350 347 290 176 173 171 167 171 171 171 166 163 160 154 146 151 135 134
326 327 315 306 301 297 298 300 293 283 279 273 262 261 261 258 256 257 247 246 229 227 239 252 249 262 265 269 308 298 175 170 165 170 169 168 163 160 159 157 150 152 142 126
324 316 317 317 314 309 302 295 293 291 294 291 277 267 267 251 253 256 250 242 252 244 229 216 222 240 190 214 237 183 207 171 163 168 162 162 161 162 159 159 152 155 150 151
327 317 317 307 301 295 291 288 281 278 281 280 279 285 289 255 261 249 242 243 244 249 227 181 219 141 204 236 234 221 178 177 167 167 165 164 164 169 163 159 156 155 152 153
322 312 308 309 305 296 291 285 280 278 275 275 274 276 267 281 259 250 227 225 245 268 232 221 224 204 202 233 232 216 180 174 172 170 163 165 165 168 164 158 152 150 142 141
324 318 311 304 301 295 291 288 285 283 278 268 263 264 265 263 258 249 224 198 221 247 254 231 229 217 230 224 222 206 176 170 171 166 167 160 162 160 161 157 150 142 139 147
317 316 310 313 309 301 299 293 288 279 273 249 248 247 249 246 244 240 232 241 239 244 259 246 226 231 234 223 207 196 171 166 163 163 163 159 157 157 153 151 144 134 146 149
318 314 317 318 316 310 312 310 299 302 329 337 262 252 252 259 260 257 253 253 257 240 244 243 236 240 232 217 191 168 166 161 160 162 157 157 152 152 143 139 139 144 144 149
324 322 324 323 318 321 326 323 332 332 331 310 281 273 278 282 284 271 244 253 257 231 232 224 215 209 179 165 157 156 157 149 146 146 148 148 148 144 131 139 144 139 145 151
329 331 330 332 332 330 326 344 346 350 359 7 6 4 354 4 330 274 266 285 251 266 202 175 142 139 140 132 136 137 136 132 135 138 141 141 140 135 141 139 141 136 143 149
340 342 335 329 330 342 356 353 351 357 2 19 23 15 1 22 39 16 11 35 69 89 101 114 111 111 115 119 122 121 121 125 124 128 127 124 122 124 122 133 135 139 141 144
342 335 342 352 356 355 354 352 358 6 5 14 19 22 29 27 35 20 43 50 66 86 87 93 97 104 105 110 111 112 114 118 119 113 109 115 121 122 123 130 135 138 140 143
337 348 343 351 351 357 352 354 10 16 12 11 18 18 25 29 37 44 49 54 58 67 71 77 82 86 94 97 99 100 102 102 103 110 115 117 121 122 124 127 132 130 132 138
339 355 354 7 10 2 7 10 17 23 18 20 23 11 14 22 32 45 52 55 58 58 59 64 70 76 82 84 88 89 92 97 104 108 111 115 117 121 125 129 126 127 130 134